Time,TemperatureF,DewpointF,PressureIn,WindDirection,WindDirectionDegrees,WindSpeedMPH,WindSpeedGustMPH,Humidity,HourlyPrecipIn,Conditions,Clouds,dailyrainin,SoftwareType,DateUTC
2013-07-22 00:00:00,61.9,34.0,17.72,East,89,0.0,0.0,35,0.00,,---,0.00,VWS V13.01,2013-07-22 04:00:00,
2013-07-22 00:01:00,61.9,34.0,17.72,East,89,0.0,0.0,35,0.00,,---,0.00,VWS V13.01,2013-07-22 04:01:00,
2013-07-22 00:06:00,61.9,34.0,17.72,East,89,0.0,0.0,35,0.00,,---,0.00,VWS V13.01,2013-07-22 04:06:00,
2013-07-22 00:11:00,61.9,34.0,17.72,East,89,0.0,0.0,35,0.00,,---,0.00,VWS V13.01,2013-07-22 04:11:00,
2013-07-22 00:16:00,61.7,33.8,17.72,East,89,0.0,0.0,35,0.00,,---,0.00,VWS V13.01,2013-07-22 04:16:00,
2013-07-22 00:21:00,61.5,33.6,17.72,East,89,0.0,0.0,35,0.00,,---,0.00,VWS V13.01,2013-07-22 04:21:00,
2013-07-22 00:26:00,61.3,34.2,17.72,East,89,0.0,0.0,36,0.00,,---,0.00,VWS V13.01,2013-07-22 04:26:00,
2013-07-22 00:31:00,61.3,34.2,17.72,East,89,0.0,0.0,36,0.00,,---,0.00,VWS V13.01,2013-07-22 04:31:00,
2013-07-22 00:36:00,61.3,34.2,17.72,East,89,0.0,0.0,36,0.00,,---,0.00,VWS V13.01,2013-07-22 04:36:00,
2013-07-22 00:41:00,61.2,34.0,17.72,East,89,0.0,0.0,36,0.00,,---,0.00,VWS V13.01,2013-07-22 04:41:00,
2013-07-22 00:46:00,61.2,34.0,17.72,East,89,0.0,0.0,36,0.00,,---,0.00,VWS V13.01,2013-07-22 04:46:00,
2013-07-22 00:51:00,61.2,34.0,17.72,East,89,0.0,0.0,36,0.00,,---,0.00,VWS V13.01,2013-07-22 04:51:00,
2013-07-22 00:56:00,61.2,34.0,17.72,East,89,0.0,0.0,36,0.00,,---,0.00,VWS V13.01,2013-07-22 04:56:00,
2013-07-22 01:01:00,61.2,34.7,17.72,East,89,0.0,0.0,37,0.00,,---,0.00,VWS V13.01,2013-07-22 05:01:00,
2013-07-22 01:06:00,61.2,34.7,17.72,East,89,0.0,0.0,37,0.00,,---,0.00,VWS V13.01,2013-07-22 05:06:00,
2013-07-22 01:11:00,61.0,34.5,17.72,East,89,0.0,0.0,37,0.00,,---,0.00,VWS V13.01,2013-07-22 05:11:00,
2013-07-22 01:16:00,61.2,34.7,17.72,East,89,0.0,0.0,37,0.00,,---,0.00,VWS V13.01,2013-07-22 05:16:00,
2013-07-22 01:21:00,61.2,34.7,17.72,East,89,0.0,0.0,37,0.00,,---,0.00,VWS V13.01,2013-07-22 05:21:00,
2013-07-22 01:26:00,61.2,34.7,17.72,East,89,0.0,0.0,37,0.00,,---,0.00,VWS V13.01,2013-07-22 05:26:00,
2013-07-22 01:31:00,61.2,35.4,17.72,East,89,0.0,0.0,38,0.00,,---,0.00,VWS V13.01,2013-07-22 05:31:00,
2013-07-22 01:36:00,61.2,35.4,17.72,East,89,0.0,0.0,38,0.00,,---,0.00,VWS V13.01,2013-07-22 05:36:00,
2013-07-22 01:41:00,61.2,35.4,17.72,East,89,0.0,0.0,38,0.00,,---,0.00,VWS V13.01,2013-07-22 05:41:00,
2013-07-22 01:46:00,61.2,35.4,17.72,East,89,0.0,0.0,38,0.00,,---,0.00,VWS V13.01,2013-07-22 05:46:00,
2013-07-22 01:51:00,61.2,35.4,17.72,East,89,0.0,0.0,38,0.00,,---,0.00,VWS V13.01,2013-07-22 05:51:00,
2013-07-22 01:56:00,61.2,36.0,17.72,East,89,0.0,0.0,39,0.00,,---,0.00,VWS V13.01,2013-07-22 05:56:00,
2013-07-22 02:01:00,61.0,35.9,17.72,East,89,0.0,0.0,39,0.00,,---,0.00,VWS V13.01,2013-07-22 06:01:00,
2013-07-22 02:07:00,61.0,35.9,17.72,East,89,0.0,0.0,39,0.00,,---,0.00,VWS V13.01,2013-07-22 06:07:00,
2013-07-22 02:12:00,61.0,35.9,17.72,East,89,0.0,0.0,39,0.00,,---,0.00,VWS V13.01,2013-07-22 06:12:00,
2013-07-22 02:17:00,61.0,35.9,17.72,East,89,0.0,0.0,39,0.00,,---,0.00,VWS V13.01,2013-07-22 06:17:00,
2013-07-22 02:22:00,61.0,36.5,17.72,East,89,0.0,0.0,40,0.00,,---,0.00,VWS V13.01,2013-07-22 06:22:00,
2013-07-22 02:27:00,61.0,36.5,17.72,East,89,0.0,0.0,40,0.00,,---,0.00,VWS V13.01,2013-07-22 06:27:00,
2013-07-22 02:32:00,61.2,36.7,17.72,East,89,0.0,0.0,40,0.00,,---,0.00,VWS V13.01,2013-07-22 06:32:00,
2013-07-22 02:37:00,61.0,37.1,17.72,East,89,0.0,0.0,41,0.00,,---,0.00,VWS V13.01,2013-07-22 06:37:00,
2013-07-22 02:42:00,61.0,37.1,17.72,East,89,0.0,0.0,41,0.00,,---,0.00,VWS V13.01,2013-07-22 06:42:00,
2013-07-22 02:47:00,60.8,37.0,17.72,East,89,0.0,0.0,41,0.00,,---,0.00,VWS V13.01,2013-07-22 06:47:00,
2013-07-22 02:52:00,60.8,37.0,17.72,East,89,0.0,0.0,41,0.00,,---,0.00,VWS V13.01,2013-07-22 06:52:00,
2013-07-22 02:57:00,60.8,37.0,17.72,East,89,0.0,0.0,41,0.00,,---,0.00,VWS V13.01,2013-07-22 06:57:00,
2013-07-22 03:02:00,60.8,37.6,17.72,East,89,0.0,0.0,42,0.00,,---,0.00,VWS V13.01,2013-07-22 07:02:00,
2013-07-22 03:07:00,61.0,37.8,17.72,East,89,0.0,0.0,42,0.00,,---,0.00,VWS V13.01,2013-07-22 07:07:00,
2013-07-22 03:12:00,60.8,37.6,17.72,East,89,0.0,0.0,42,0.00,,---,0.00,VWS V13.01,2013-07-22 07:12:00,
2013-07-22 03:17:00,61.0,37.8,17.72,East,89,0.0,0.0,42,0.00,,---,0.00,VWS V13.01,2013-07-22 07:17:00,
2013-07-22 03:22:00,61.0,38.3,17.72,East,89,0.0,0.0,43,0.00,,---,0.00,VWS V13.01,2013-07-22 07:22:00,
2013-07-22 03:27:00,60.8,38.2,17.72,East,89,0.0,0.0,43,0.00,,---,0.00,VWS V13.01,2013-07-22 07:27:00,
2013-07-22 03:32:00,60.8,38.2,17.72,East,89,0.0,0.0,43,0.00,,---,0.00,VWS V13.01,2013-07-22 07:32:00,
2013-07-22 03:37:00,60.6,38.0,17.72,East,89,0.0,0.0,43,0.00,,---,0.00,VWS V13.01,2013-07-22 07:37:00,
2013-07-22 03:42:00,60.6,38.6,17.72,East,89,0.0,0.0,44,0.00,,---,0.00,VWS V13.01,2013-07-22 07:42:00,
2013-07-22 03:47:00,60.6,38.6,17.72,East,89,0.0,0.0,44,0.00,,---,0.00,VWS V13.01,2013-07-22 07:47:00,
2013-07-22 03:52:00,60.6,38.6,17.72,East,89,0.0,0.0,44,0.00,,---,0.00,VWS V13.01,2013-07-22 07:52:00,
2013-07-22 03:57:00,60.4,38.4,17.72,East,89,0.0,0.0,44,0.00,,---,0.00,VWS V13.01,2013-07-22 07:57:00,
2013-07-22 04:02:00,60.4,38.4,17.72,East,89,0.0,0.0,44,0.00,,---,0.00,VWS V13.01,2013-07-22 08:02:00,
2013-07-22 04:07:00,60.4,38.4,17.72,East,89,0.0,0.0,44,0.00,,---,0.00,VWS V13.01,2013-07-22 08:07:00,
2013-07-22 04:12:00,60.4,39.0,17.72,East,89,0.0,0.0,45,0.00,,---,0.00,VWS V13.01,2013-07-22 08:12:00,
2013-07-22 04:17:00,60.4,39.0,17.72,East,89,0.0,0.0,45,0.00,,---,0.00,VWS V13.01,2013-07-22 08:17:00,
2013-07-22 04:22:00,60.4,39.0,17.72,East,89,0.0,0.0,45,0.00,,---,0.00,VWS V13.01,2013-07-22 08:22:00,
2013-07-22 04:27:00,60.4,39.0,17.72,East,89,0.0,0.0,45,0.00,,---,0.00,VWS V13.01,2013-07-22 08:27:00,
2013-07-22 04:31:00,60.4,39.0,17.72,East,89,0.0,0.0,45,0.00,,---,0.00,VWS V13.01,2013-07-22 08:31:00,
2013-07-22 04:36:00,60.3,38.8,17.72,East,89,0.0,0.0,45,0.00,,---,0.00,VWS V13.01,2013-07-22 08:36:00,
2013-07-22 04:41:00,60.3,38.8,17.72,East,89,0.0,0.0,45,0.00,,---,0.00,VWS V13.01,2013-07-22 08:41:00,
2013-07-22 04:46:00,60.4,39.0,17.72,East,89,0.0,0.0,45,0.00,,---,0.00,VWS V13.01,2013-07-22 08:46:00,
2013-07-22 04:52:00,60.4,39.0,17.72,East,89,0.0,0.0,45,0.00,,---,0.00,VWS V13.01,2013-07-22 08:52:00,
2013-07-22 04:57:00,60.4,39.0,17.72,East,89,0.0,0.0,45,0.00,,---,0.00,VWS V13.01,2013-07-22 08:57:00,
2013-07-22 05:02:00,60.4,39.0,17.72,East,89,0.0,0.0,45,0.00,,---,0.00,VWS V13.01,2013-07-22 09:02:00,
2013-07-22 05:07:00,60.4,39.6,17.72,East,89,0.0,0.0,46,0.00,,---,0.00,VWS V13.01,2013-07-22 09:07:00,
2013-07-22 05:12:00,60.4,39.6,17.72,East,89,0.0,0.0,46,0.00,,---,0.00,VWS V13.01,2013-07-22 09:12:00,
2013-07-22 05:17:00,60.4,39.6,17.72,East,89,0.0,0.0,46,0.00,,---,0.00,VWS V13.01,2013-07-22 09:17:00,
2013-07-22 05:22:00,60.4,39.6,17.72,East,89,0.0,0.0,46,0.00,,---,0.00,VWS V13.01,2013-07-22 09:22:00,
2013-07-22 05:27:00,60.4,39.6,17.72,East,89,0.0,0.0,46,0.00,,---,0.00,VWS V13.01,2013-07-22 09:27:00,
2013-07-22 05:32:00,60.4,39.6,17.72,East,89,0.0,0.0,46,0.00,,---,0.00,VWS V13.01,2013-07-22 09:32:00,
2013-07-22 05:37:00,60.4,39.6,17.72,East,89,0.0,0.0,46,0.00,,---,0.00,VWS V13.01,2013-07-22 09:37:00,
2013-07-22 05:42:00,60.3,39.4,17.72,East,89,0.0,0.0,46,0.00,,---,0.00,VWS V13.01,2013-07-22 09:42:00,
2013-07-22 05:47:00,60.3,39.4,17.72,East,89,0.0,0.0,46,0.00,,---,0.00,VWS V13.01,2013-07-22 09:47:00,
2013-07-22 05:52:00,60.3,40.0,17.72,East,89,0.0,0.0,47,0.00,,---,0.00,VWS V13.01,2013-07-22 09:52:00,
2013-07-22 05:57:00,60.3,40.0,17.72,East,89,0.0,0.0,47,0.00,,---,0.00,VWS V13.01,2013-07-22 09:57:00,
2013-07-22 06:02:00,60.3,40.0,17.72,East,89,0.0,0.0,47,0.00,,---,0.00,VWS V13.01,2013-07-22 10:02:00,
2013-07-22 06:07:00,60.3,40.0,17.72,East,89,0.0,0.0,47,0.00,,---,0.00,VWS V13.01,2013-07-22 10:07:00,
2013-07-22 06:12:00,60.3,40.0,17.72,East,89,0.0,0.0,47,0.00,,---,0.00,VWS V13.01,2013-07-22 10:12:00,
2013-07-22 06:17:00,60.3,40.0,17.72,East,89,0.0,0.0,47,0.00,,---,0.00,VWS V13.01,2013-07-22 10:17:00,
2013-07-22 06:22:00,60.3,40.0,17.72,East,89,0.0,0.0,47,0.00,,---,0.00,VWS V13.01,2013-07-22 10:22:00,
2013-07-22 06:27:00,60.4,40.1,17.72,East,89,0.0,0.0,47,0.00,,---,0.00,VWS V13.01,2013-07-22 10:27:00,
2013-07-22 06:32:00,60.6,40.8,17.72,East,89,0.0,0.0,48,0.00,,---,0.00,VWS V13.01,2013-07-22 10:32:00,
2013-07-22 06:37:00,60.8,40.5,17.72,East,89,0.0,0.0,47,0.00,,---,0.00,VWS V13.01,2013-07-22 10:37:00,
2013-07-22 06:42:00,61.0,41.2,17.72,East,89,0.0,0.0,48,0.00,,---,0.00,VWS V13.01,2013-07-22 10:42:00,
2013-07-22 06:47:00,61.3,41.5,17.72,East,89,0.0,0.0,48,0.00,,---,0.00,VWS V13.01,2013-07-22 10:47:00,
2013-07-22 06:52:00,61.7,41.8,17.72,East,89,0.0,0.0,48,0.00,,---,0.00,VWS V13.01,2013-07-22 10:52:00,
2013-07-22 06:57:00,62.1,42.7,17.72,East,89,0.0,0.0,49,0.00,,---,0.00,VWS V13.01,2013-07-22 10:57:00,
2013-07-22 07:02:00,62.4,43.0,17.72,East,89,0.0,0.0,49,0.00,,---,0.00,VWS V13.01,2013-07-22 11:02:00,
2013-07-22 07:07:00,62.8,43.4,17.72,East,89,0.0,0.0,49,0.00,,---,0.00,VWS V13.01,2013-07-22 11:07:00,
2013-07-22 07:12:00,63.1,43.7,17.72,East,89,0.0,0.0,49,0.00,,---,0.00,VWS V13.01,2013-07-22 11:12:00,
2013-07-22 07:17:00,63.5,44.0,17.72,East,89,0.0,0.0,49,0.00,,---,0.00,VWS V13.01,2013-07-22 11:17:00,
2013-07-22 07:22:00,64.0,44.5,17.72,SE,141,0.0,0.0,49,0.00,,---,0.00,VWS V13.01,2013-07-22 11:22:00,
2013-07-22 07:27:00,64.6,44.5,17.72,SE,141,0.0,0.0,48,0.00,,---,0.00,VWS V13.01,2013-07-22 11:27:00,
2013-07-22 07:32:00,65.1,45.0,17.72,SSE,157,0.0,0.0,48,0.00,,---,0.00,VWS V13.01,2013-07-22 11:32:00,
2013-07-22 07:37:00,65.5,45.3,17.72,SSE,157,0.0,0.0,48,0.00,,---,0.00,VWS V13.01,2013-07-22 11:37:00,
2013-07-22 07:42:00,65.8,45.6,17.72,SSE,157,0.0,0.0,48,0.00,,---,0.00,VWS V13.01,2013-07-22 11:42:00,
2013-07-22 07:47:00,66.0,45.2,17.72,SSE,157,0.0,0.0,47,0.00,,---,0.00,VWS V13.01,2013-07-22 11:47:00,
2013-07-22 07:52:00,66.2,45.4,17.72,SSE,157,0.0,0.0,47,0.00,,---,0.00,VWS V13.01,2013-07-22 11:52:00,
2013-07-22 07:57:00,66.4,45.0,17.72,SSE,157,0.0,0.0,46,0.00,,---,0.00,VWS V13.01,2013-07-22 11:57:00,
2013-07-22 08:02:00,66.6,45.2,17.72,SSE,157,0.0,0.0,46,0.00,,---,0.00,VWS V13.01,2013-07-22 12:02:00,
2013-07-22 08:07:00,66.7,45.3,17.72,SSE,157,0.0,0.0,46,0.00,,---,0.00,VWS V13.01,2013-07-22 12:07:00,
2013-07-22 08:12:00,66.9,44.9,17.72,South,169,0.0,0.0,45,0.00,,---,0.00,VWS V13.01,2013-07-22 12:12:00,
2013-07-22 08:17:00,67.3,44.7,17.72,South,169,0.0,0.0,44,0.00,,---,0.00,VWS V13.01,2013-07-22 12:17:00,
2013-07-22 08:22:00,67.5,44.8,17.72,South,169,0.0,0.0,44,0.00,,---,0.00,VWS V13.01,2013-07-22 12:22:00,
2013-07-22 08:27:00,67.6,44.4,17.72,South,169,0.0,0.0,43,0.00,,---,0.00,VWS V13.01,2013-07-22 12:27:00,
2013-07-22 08:33:00,67.8,43.9,17.72,SSE,165,0.0,0.0,42,0.00,,---,0.00,VWS V13.01,2013-07-22 12:33:00,
2013-07-22 08:38:00,68.0,43.5,17.72,SSE,164,0.0,0.0,41,0.00,,---,0.00,VWS V13.01,2013-07-22 12:38:00,
2013-07-22 08:43:00,68.4,43.1,17.72,SSE,160,0.0,0.0,40,0.00,,---,0.00,VWS V13.01,2013-07-22 12:43:00,
2013-07-22 08:48:00,68.5,42.0,17.72,SSE,160,0.0,0.0,38,0.00,,---,0.00,VWS V13.01,2013-07-22 12:48:00,
2013-07-22 08:52:00,68.9,42.3,17.72,SSE,157,0.0,0.0,38,0.00,,---,0.00,VWS V13.01,2013-07-22 12:52:00,
2013-07-22 08:57:00,69.3,41.2,17.72,SSE,161,0.0,0.0,36,0.00,,---,0.00,VWS V13.01,2013-07-22 12:57:00,
2013-07-22 09:02:00,69.6,40.8,17.72,SSW,201,0.0,2.7,35,0.00,,---,0.00,VWS V13.01,2013-07-22 13:02:00,
2013-07-22 09:07:00,69.8,40.2,17.72,SSE,155,0.0,0.0,34,0.00,,---,0.00,VWS V13.01,2013-07-22 13:07:00,
2013-07-22 09:12:00,70.0,39.6,17.72,South,169,2.2,2.7,33,0.00,,---,0.00,VWS V13.01,2013-07-22 13:12:00,
2013-07-22 09:17:00,70.0,38.8,17.72,SSE,165,0.0,0.0,32,0.00,,---,0.00,VWS V13.01,2013-07-22 13:17:00,
2013-07-22 09:23:00,70.2,39.0,17.72,SSE,166,0.0,0.0,32,0.00,,---,0.00,VWS V13.01,2013-07-22 13:23:00,
2013-07-22 09:27:00,70.3,36.6,17.72,SSE,166,0.0,0.0,29,0.00,,---,0.00,VWS V13.01,2013-07-22 13:27:00,
2013-07-22 09:32:00,70.3,35.7,17.72,SSE,166,0.0,0.0,28,0.00,,---,0.00,VWS V13.01,2013-07-22 13:32:00,
2013-07-22 09:37:00,70.5,35.9,17.72,SSE,165,0.0,0.0,28,0.00,,---,0.00,VWS V13.01,2013-07-22 13:37:00,
2013-07-22 09:42:00,70.7,35.1,17.72,SSE,157,0.0,0.0,27,0.00,,---,0.00,VWS V13.01,2013-07-22 13:42:00,
2013-07-22 09:47:00,70.9,34.3,17.72,SSE,157,0.0,0.0,26,0.00,,---,0.00,VWS V13.01,2013-07-22 13:47:00,
2013-07-22 09:52:00,70.9,33.3,17.72,East,101,3.1,3.1,25,0.00,,---,0.00,VWS V13.01,2013-07-22 13:52:00,
2013-07-22 09:57:00,70.9,32.3,17.72,ESE,106,0.0,0.0,24,0.00,,---,0.00,VWS V13.01,2013-07-22 13:57:00,
2013-07-22 10:02:00,71.2,32.6,17.72,SE,130,0.0,0.0,24,0.00,,---,0.00,VWS V13.01,2013-07-22 14:02:00,
2013-07-22 10:07:00,71.2,33.6,17.72,SSE,153,0.0,0.0,25,0.00,,---,0.00,VWS V13.01,2013-07-22 14:07:00,
2013-07-22 10:12:00,71.2,32.6,17.72,South,175,0.0,0.0,24,0.00,,---,0.00,VWS V13.01,2013-07-22 14:12:00,
2013-07-22 10:17:00,71.4,31.7,17.72,SSE,162,0.0,0.0,23,0.00,,---,0.00,VWS V13.01,2013-07-22 14:17:00,
2013-07-22 10:22:00,71.6,31.9,17.72,SSE,163,0.0,0.0,23,0.00,,---,0.00,VWS V13.01,2013-07-22 14:22:00,
2013-07-22 10:27:00,72.0,31.1,17.72,SSE,163,0.0,0.0,22,0.00,,---,0.00,VWS V13.01,2013-07-22 14:27:00,
2013-07-22 10:32:00,71.8,30.9,17.72,SSE,163,0.0,0.0,22,0.00,,---,0.00,VWS V13.01,2013-07-22 14:32:00,
2013-07-22 10:37:00,72.0,31.1,17.72,SSE,163,0.0,0.0,22,0.00,,---,0.00,VWS V13.01,2013-07-22 14:37:00,
2013-07-22 10:42:00,72.1,31.2,17.72,SSE,163,0.0,0.0,22,0.00,,---,0.00,VWS V13.01,2013-07-22 14:42:00,
2013-07-22 10:47:00,72.3,30.2,17.72,East,89,2.7,2.7,21,0.00,,---,0.00,VWS V13.01,2013-07-22 14:47:00,
2013-07-22 10:52:00,72.3,30.2,17.72,East,89,3.6,3.6,21,0.00,,---,0.00,VWS V13.01,2013-07-22 14:52:00,
2013-07-22 10:57:00,72.5,30.4,17.72,East,89,3.6,3.6,21,0.00,,---,0.00,VWS V13.01,2013-07-22 14:57:00,
2013-07-22 11:02:00,72.7,30.5,17.72,East,87,0.0,0.0,21,0.00,,---,0.00,VWS V13.01,2013-07-22 15:02:00,
2013-07-22 11:07:00,72.9,28.2,17.72,East,82,2.2,4.9,19,0.00,,---,0.00,VWS V13.01,2013-07-22 15:07:00,
2013-07-22 11:13:00,73.0,28.4,17.72,NNE,18,0.0,0.0,19,0.00,,---,0.00,VWS V13.01,2013-07-22 15:13:00,
2013-07-22 11:18:00,73.0,28.4,17.72,NNE,24,0.0,0.0,19,0.00,,---,0.00,VWS V13.01,2013-07-22 15:18:00,
2013-07-22 11:23:00,73.2,28.5,17.72,NNE,24,0.0,0.0,19,0.00,,---,0.00,VWS V13.01,2013-07-22 15:23:00,
2013-07-22 11:28:00,73.2,28.5,17.72,East,97,2.2,2.2,19,0.00,,---,0.00,VWS V13.01,2013-07-22 15:28:00,
2013-07-22 11:33:00,73.4,27.4,17.72,NNE,33,0.0,0.0,18,0.00,,---,0.00,VWS V13.01,2013-07-22 15:33:00,
2013-07-22 11:38:00,73.6,27.5,17.72,NNE,33,0.0,0.0,18,0.00,,---,0.00,VWS V13.01,2013-07-22 15:38:00,
2013-07-22 11:43:00,73.9,27.8,17.72,East,85,2.7,2.7,18,0.00,,---,0.00,VWS V13.01,2013-07-22 15:43:00,
2013-07-22 11:48:00,73.9,27.8,17.72,East,88,3.1,3.1,18,0.00,,---,0.00,VWS V13.01,2013-07-22 15:48:00,
2013-07-22 11:53:00,73.9,31.6,17.72,East,95,4.0,4.0,21,0.00,,---,0.00,VWS V13.01,2013-07-22 15:53:00,
2013-07-22 11:58:00,74.1,31.7,17.72,East,100,3.1,3.1,21,0.00,,---,0.00,VWS V13.01,2013-07-22 15:58:00,
2013-07-22 12:03:00,74.1,31.7,17.72,ENE,77,0.0,0.0,21,0.00,,---,0.00,VWS V13.01,2013-07-22 16:03:00,
2013-07-22 12:08:00,73.9,31.6,17.72,SE,139,2.7,2.7,21,0.00,,---,0.00,VWS V13.01,2013-07-22 16:08:00,
2013-07-22 12:13:00,73.8,31.4,17.72,East,89,2.7,2.7,21,0.00,,---,0.00,VWS V13.01,2013-07-22 16:13:00,
2013-07-22 12:18:00,73.4,31.1,17.72,East,88,3.1,3.1,21,0.00,,---,0.00,VWS V13.01,2013-07-22 16:18:00,
2013-07-22 12:23:00,73.2,32.1,17.72,East,92,2.7,2.7,22,0.00,,---,0.00,VWS V13.01,2013-07-22 16:23:00,
2013-07-22 12:28:00,73.2,32.1,17.72,East,85,3.1,3.1,22,0.00,,---,0.00,VWS V13.01,2013-07-22 16:28:00,
2013-07-22 12:33:00,73.0,32.0,17.72,NNE,23,4.0,4.0,22,0.00,,---,0.00,VWS V13.01,2013-07-22 16:33:00,
2013-07-22 12:38:00,73.0,32.0,17.72,ENE,77,4.9,4.9,22,0.00,,---,0.00,VWS V13.01,2013-07-22 16:38:00,
2013-07-22 12:43:00,73.2,32.1,17.72,East,87,3.6,3.6,22,0.00,,---,0.00,VWS V13.01,2013-07-22 16:43:00,
2013-07-22 12:48:00,73.4,31.1,17.72,ESE,103,2.7,4.9,21,0.00,,---,0.00,VWS V13.01,2013-07-22 16:48:00,
2013-07-22 12:53:00,73.4,31.1,17.72,East,99,5.4,5.4,21,0.00,,---,0.00,VWS V13.01,2013-07-22 16:53:00,
2013-07-22 12:58:00,73.4,32.3,17.72,East,99,5.4,5.4,22,0.00,,---,0.00,VWS V13.01,2013-07-22 16:58:00,
2013-07-22 13:03:00,73.9,32.7,17.72,East,99,5.4,5.4,22,0.00,,---,0.00,VWS V13.01,2013-07-22 17:03:00,
2013-07-22 13:08:00,74.1,32.9,17.72,East,84,0.0,5.4,22,0.00,,---,0.00,VWS V13.01,2013-07-22 17:08:00,
2013-07-22 13:13:00,74.5,32.0,17.72,East,84,0.0,0.0,21,0.00,,---,0.00,VWS V13.01,2013-07-22 17:13:00,
2013-07-22 13:17:00,74.5,32.0,17.72,East,86,3.1,3.1,21,0.00,,---,0.00,VWS V13.01,2013-07-22 17:17:00,
2013-07-22 13:22:00,74.3,31.9,17.72,East,86,3.1,3.1,21,0.00,,---,0.00,VWS V13.01,2013-07-22 17:22:00,
2013-07-22 13:27:00,74.3,31.9,17.72,East,83,2.7,2.7,21,0.00,,---,0.00,VWS V13.01,2013-07-22 17:27:00,
2013-07-22 13:32:00,74.5,32.0,17.72,ENE,77,7.6,7.6,21,0.00,,---,0.00,VWS V13.01,2013-07-22 17:32:00,
2013-07-22 13:37:00,74.7,32.2,17.72,East,96,0.0,0.0,21,0.00,,---,0.00,VWS V13.01,2013-07-22 17:37:00,
2013-07-22 13:42:00,74.7,32.2,17.72,East,93,0.0,2.7,21,0.00,,---,0.00,VWS V13.01,2013-07-22 17:42:00,
2013-07-22 13:48:00,75.0,33.6,17.72,East,82,3.1,3.1,22,0.00,,---,0.00,VWS V13.01,2013-07-22 17:48:00,
2013-07-22 13:53:00,75.2,32.6,17.72,East,87,4.0,4.5,21,0.00,,---,0.00,VWS V13.01,2013-07-22 17:53:00,
2013-07-22 13:58:00,75.0,32.5,17.72,ESE,123,2.7,2.7,21,0.00,,---,0.00,VWS V13.01,2013-07-22 17:58:00,
2013-07-22 14:03:00,75.2,32.6,17.72,ESE,102,5.8,5.8,21,0.00,,---,0.00,VWS V13.01,2013-07-22 18:03:00,
2013-07-22 14:08:00,75.0,32.5,17.72,NNE,25,2.7,2.7,21,0.00,,---,0.00,VWS V13.01,2013-07-22 18:08:00,
2013-07-22 14:13:00,74.8,32.3,17.72,ENE,77,4.9,4.9,21,0.00,,---,0.00,VWS V13.01,2013-07-22 18:13:00,
2013-07-22 14:18:00,74.7,32.2,17.72,East,82,0.0,2.2,21,0.00,,---,0.00,VWS V13.01,2013-07-22 18:18:00,
2013-07-22 14:23:00,74.7,32.2,17.72,East,93,0.0,2.7,21,0.00,,---,0.00,VWS V13.01,2013-07-22 18:23:00,
2013-07-22 14:28:00,74.8,32.3,17.72,ENE,73,3.6,4.0,21,0.00,,---,0.00,VWS V13.01,2013-07-22 18:28:00,
2013-07-22 14:33:00,74.7,32.2,17.72,NE,38,0.0,2.7,21,0.00,,---,0.00,VWS V13.01,2013-07-22 18:33:00,
2013-07-22 14:39:00,74.5,32.0,17.72,East,95,0.0,3.6,21,0.00,,---,0.00,VWS V13.01,2013-07-22 18:39:00,
2013-07-22 14:44:00,74.5,32.0,17.72,East,95,0.0,0.0,21,0.00,,---,0.00,VWS V13.01,2013-07-22 18:44:00,
2013-07-22 14:49:00,74.5,32.0,17.72,East,84,5.8,5.8,21,0.00,,---,0.00,VWS V13.01,2013-07-22 18:49:00,
2013-07-22 14:54:00,74.5,32.0,17.72,East,101,3.1,3.1,21,0.00,,---,0.00,VWS V13.01,2013-07-22 18:54:00,
2013-07-22 14:59:00,74.5,32.0,17.72,East,79,3.6,3.6,21,0.00,,---,0.00,VWS V13.01,2013-07-22 18:59:00,
2013-07-22 15:05:00,74.3,31.9,17.72,East,79,3.6,3.6,21,0.00,,---,0.00,VWS V13.01,2013-07-22 19:05:00,
2013-07-22 15:10:00,74.1,31.7,17.72,East,92,3.1,3.1,21,0.00,,---,0.00,VWS V13.01,2013-07-22 19:10:00,
2013-07-22 15:15:00,74.1,31.7,17.72,East,92,3.1,3.1,21,0.00,,---,0.00,VWS V13.01,2013-07-22 19:15:00,
2013-07-22 15:20:00,74.1,31.7,17.72,East,89,2.7,2.7,21,0.00,,---,0.00,VWS V13.01,2013-07-22 19:20:00,
2013-07-22 15:25:00,74.3,33.0,17.72,East,90,3.1,3.1,22,0.00,,---,0.00,VWS V13.01,2013-07-22 19:25:00,
2013-07-22 15:30:00,74.3,31.9,17.72,East,90,3.1,3.1,21,0.00,,---,0.00,VWS V13.01,2013-07-22 19:30:00,
2013-07-22 15:35:00,74.1,31.7,17.72,East,90,3.1,3.1,21,0.00,,---,0.00,VWS V13.01,2013-07-22 19:35:00,
2013-07-22 15:40:00,74.1,31.7,17.72,ENE,65,0.0,0.0,21,0.00,,---,0.00,VWS V13.01,2013-07-22 19:40:00,
2013-07-22 15:45:00,73.9,32.7,17.72,ENE,77,3.1,3.1,22,0.00,,---,0.00,VWS V13.01,2013-07-22 19:45:00,
2013-07-22 15:50:00,74.1,32.9,17.72,East,83,5.4,5.4,22,0.00,,---,0.00,VWS V13.01,2013-07-22 19:50:00,
2013-07-22 15:55:00,74.7,33.3,17.72,ENE,72,3.6,3.6,22,0.00,,---,0.00,VWS V13.01,2013-07-22 19:55:00,
2013-07-22 16:01:00,74.7,32.2,17.72,ENE,78,3.6,3.6,21,0.00,,---,0.00,VWS V13.01,2013-07-22 20:01:00,
2013-07-22 16:05:00,74.7,32.2,17.72,East,93,0.0,0.0,21,0.00,,---,0.00,VWS V13.01,2013-07-22 20:05:00,
2013-07-22 16:10:00,74.5,32.0,17.72,East,93,0.0,0.0,21,0.00,,---,0.00,VWS V13.01,2013-07-22 20:10:00,
2013-07-22 16:16:00,74.3,31.9,17.72,East,93,0.0,0.0,21,0.00,,---,0.00,VWS V13.01,2013-07-22 20:16:00,
2013-07-22 16:17:00,74.3,31.9,17.72,East,93,0.0,0.0,21,0.00,,---,0.00,VWS V13.01,2013-07-22 20:17:00,
2013-07-22 16:22:00,74.7,32.2,17.72,ENE,72,3.1,3.1,21,0.00,,---,0.00,VWS V13.01,2013-07-22 20:22:00,
2013-07-22 16:27:00,75.2,32.6,17.72,NNE,27,0.0,0.0,21,0.00,,---,0.00,VWS V13.01,2013-07-22 20:27:00,
2013-07-22 16:32:00,75.0,32.5,17.72,NNE,27,0.0,0.0,21,0.00,,---,0.00,VWS V13.01,2013-07-22 20:32:00,
2013-07-22 16:38:00,75.0,32.5,17.72,East,100,0.0,0.0,21,0.00,,---,0.00,VWS V13.01,2013-07-22 20:38:00,
2013-07-22 16:43:00,75.2,31.4,17.72,ENE,69,2.2,2.2,20,0.00,,---,0.00,VWS V13.01,2013-07-22 20:43:00,
2013-07-22 16:48:00,75.4,31.6,17.72,East,82,0.0,0.0,20,0.00,,---,0.00,VWS V13.01,2013-07-22 20:48:00,
2013-07-22 16:53:00,75.2,31.4,17.72,East,80,0.0,0.0,20,0.00,,---,0.00,VWS V13.01,2013-07-22 20:53:00,
2013-07-22 16:58:00,75.0,28.7,17.72,East,80,0.0,0.0,18,0.00,,---,0.00,VWS V13.01,2013-07-22 20:58:00,
2013-07-22 17:03:00,74.7,32.2,17.72,East,80,0.0,0.0,21,0.00,,---,0.00,VWS V13.01,2013-07-22 21:03:00,
2013-07-22 17:08:00,74.5,32.0,17.72,East,80,0.0,0.0,21,0.00,,---,0.00,VWS V13.01,2013-07-22 21:08:00,
2013-07-22 17:13:00,74.1,31.7,17.72,East,80,0.0,0.0,21,0.00,,---,0.00,VWS V13.01,2013-07-22 21:13:00,
2013-07-22 17:18:00,74.1,31.7,17.72,East,80,0.0,0.0,21,0.00,,---,0.00,VWS V13.01,2013-07-22 21:18:00,
2013-07-22 17:23:00,73.9,31.6,17.72,East,80,0.0,0.0,21,0.00,,---,0.00,VWS V13.01,2013-07-22 21:23:00,
2013-07-22 17:28:00,73.8,31.4,17.72,East,80,0.0,0.0,21,0.00,,---,0.00,VWS V13.01,2013-07-22 21:28:00,
2013-07-22 17:33:00,73.8,31.4,17.72,East,88,0.0,0.0,21,0.00,,---,0.00,VWS V13.01,2013-07-22 21:33:00,
2013-07-22 17:38:00,73.6,31.3,17.72,East,88,0.0,0.0,21,0.00,,---,0.00,VWS V13.01,2013-07-22 21:38:00,
2013-07-22 17:43:00,73.6,31.3,17.72,East,88,0.0,0.0,21,0.00,,---,0.00,VWS V13.01,2013-07-22 21:43:00,
2013-07-22 17:48:00,73.6,31.3,17.72,East,88,0.0,0.0,21,0.00,,---,0.00,VWS V13.01,2013-07-22 21:48:00,
2013-07-22 17:53:00,73.6,31.3,17.72,East,87,2.2,2.2,21,0.00,,---,0.00,VWS V13.01,2013-07-22 21:53:00,
2013-07-22 17:58:00,73.6,31.3,17.72,East,87,0.0,0.0,21,0.00,,---,0.00,VWS V13.01,2013-07-22 21:58:00,
2013-07-22 18:03:00,73.6,31.3,17.72,East,88,0.0,0.0,21,0.00,,---,0.00,VWS V13.01,2013-07-22 22:03:00,
2013-07-22 18:08:00,73.6,31.3,17.72,East,88,0.0,0.0,21,0.00,,---,0.00,VWS V13.01,2013-07-22 22:08:00,
2013-07-22 18:13:00,73.6,31.3,17.72,East,90,0.0,0.0,21,0.00,,---,0.00,VWS V13.01,2013-07-22 22:13:00,
2013-07-22 18:18:00,73.4,31.1,17.72,East,90,2.2,2.2,21,0.00,,---,0.00,VWS V13.01,2013-07-22 22:18:00,
2013-07-22 18:23:00,73.4,31.1,17.72,ENE,65,0.0,0.0,21,0.00,,---,0.00,VWS V13.01,2013-07-22 22:23:00,
2013-07-22 18:28:00,73.4,31.1,17.72,ENE,76,0.0,0.0,21,0.00,,---,0.00,VWS V13.01,2013-07-22 22:28:00,
2013-07-22 18:33:00,73.0,30.8,17.72,ESE,103,0.0,0.0,21,0.00,,---,0.00,VWS V13.01,2013-07-22 22:33:00,
2013-07-22 18:38:00,72.9,30.7,17.72,East,101,0.0,0.0,21,0.00,,---,0.00,VWS V13.01,2013-07-22 22:38:00,
2013-07-22 18:43:00,72.9,30.7,17.72,East,95,0.0,0.0,21,0.00,,---,0.00,VWS V13.01,2013-07-22 22:43:00,
2013-07-22 18:48:00,72.7,30.5,17.72,East,89,2.2,2.7,21,0.00,,---,0.00,VWS V13.01,2013-07-22 22:48:00,
2013-07-22 18:53:00,72.7,31.7,17.72,East,92,0.0,2.2,22,0.00,,---,0.00,VWS V13.01,2013-07-22 22:53:00,
2013-07-22 18:58:00,72.7,31.7,17.72,East,90,0.0,0.0,22,0.00,,---,0.00,VWS V13.01,2013-07-22 22:58:00,
2013-07-22 19:03:00,72.7,31.7,17.72,East,98,2.2,2.7,22,0.00,,---,0.00,VWS V13.01,2013-07-22 23:03:00,
2013-07-22 19:08:00,72.5,30.4,17.72,East,88,0.0,0.0,21,0.00,,---,0.00,VWS V13.01,2013-07-22 23:08:00,
2013-07-22 19:13:00,72.7,31.7,17.72,East,88,0.0,0.0,22,0.00,,---,0.00,VWS V13.01,2013-07-22 23:13:00,
2013-07-22 19:18:00,72.7,31.7,17.72,East,92,2.2,2.2,22,0.00,,---,0.00,VWS V13.01,2013-07-22 23:18:00,
2013-07-22 19:23:00,72.7,31.7,17.72,East,92,0.0,0.0,22,0.00,,---,0.00,VWS V13.01,2013-07-22 23:23:00,
2013-07-22 19:28:00,72.5,31.5,17.72,East,92,0.0,0.0,22,0.00,,---,0.00,VWS V13.01,2013-07-22 23:28:00,
2013-07-22 19:33:00,72.5,31.5,17.72,East,92,0.0,0.0,22,0.00,,---,0.00,VWS V13.01,2013-07-22 23:33:00,
2013-07-22 19:38:00,72.5,31.5,17.72,East,92,0.0,0.0,22,0.00,,---,0.00,VWS V13.01,2013-07-22 23:38:00,
2013-07-22 19:43:00,72.5,31.5,17.72,East,92,0.0,0.0,22,0.00,,---,0.00,VWS V13.01,2013-07-22 23:43:00,
2013-07-22 19:48:00,72.3,31.4,17.72,East,89,0.0,0.0,22,0.00,,---,0.00,VWS V13.01,2013-07-22 23:48:00,
2013-07-22 19:53:00,72.3,31.4,17.72,East,89,0.0,0.0,22,0.00,,---,0.00,VWS V13.01,2013-07-22 23:53:00,
2013-07-22 19:58:00,72.3,31.4,17.72,East,89,0.0,0.0,22,0.00,,---,0.00,VWS V13.01,2013-07-22 23:58:00,
2013-07-22 20:03:00,72.1,31.2,17.72,East,89,0.0,0.0,22,0.00,,---,0.00,VWS V13.01,2013-07-23 00:03:00,
2013-07-22 20:08:00,72.1,31.2,17.72,East,89,0.0,0.0,22,0.00,,---,0.00,VWS V13.01,2013-07-23 00:08:00,
2013-07-22 20:13:00,72.1,31.2,17.72,East,89,0.0,0.0,22,0.00,,---,0.00,VWS V13.01,2013-07-23 00:13:00,
2013-07-22 20:18:00,72.1,31.2,17.72,East,89,0.0,0.0,22,0.00,,---,0.00,VWS V13.01,2013-07-23 00:18:00,
2013-07-22 20:23:00,72.0,31.1,17.72,East,89,0.0,0.0,22,0.00,,---,0.00,VWS V13.01,2013-07-23 00:23:00,
2013-07-22 20:28:00,72.0,32.2,17.72,East,89,0.0,0.0,23,0.00,,---,0.00,VWS V13.01,2013-07-23 00:28:00,
2013-07-22 20:33:00,71.8,32.0,17.72,East,89,0.0,0.0,23,0.00,,---,0.00,VWS V13.01,2013-07-23 00:33:00,
2013-07-22 20:38:00,71.6,31.9,17.72,East,89,0.0,0.0,23,0.00,,---,0.00,VWS V13.01,2013-07-23 00:38:00,
2013-07-22 20:43:00,71.4,32.8,17.72,East,89,0.0,0.0,24,0.00,,---,0.00,VWS V13.01,2013-07-23 00:43:00,
2013-07-22 20:48:00,71.4,32.8,17.72,East,89,0.0,0.0,24,0.00,,---,0.00,VWS V13.01,2013-07-23 00:48:00,
2013-07-22 20:53:00,71.2,33.6,17.72,East,89,0.0,0.0,25,0.00,,---,0.00,VWS V13.01,2013-07-23 00:53:00,
2013-07-22 20:58:00,71.1,33.5,17.72,East,89,0.0,0.0,25,0.00,,---,0.00,VWS V13.01,2013-07-23 00:58:00,
2013-07-22 21:03:00,70.9,33.3,17.72,East,89,0.0,0.0,25,0.00,,---,0.00,VWS V13.01,2013-07-23 01:03:00,
2013-07-22 21:08:00,70.7,33.2,17.72,East,89,0.0,0.0,25,0.00,,---,0.00,VWS V13.01,2013-07-23 01:08:00,
2013-07-22 21:13:00,70.7,33.2,17.72,East,90,0.0,0.0,25,0.00,,---,0.00,VWS V13.01,2013-07-23 01:13:00,
2013-07-22 21:18:00,70.7,33.2,17.72,East,90,0.0,0.0,25,0.00,,---,0.00,VWS V13.01,2013-07-23 01:18:00,
2013-07-22 21:23:00,70.7,34.2,17.72,East,90,0.0,0.0,26,0.00,,---,0.00,VWS V13.01,2013-07-23 01:23:00,
2013-07-22 21:28:00,70.7,34.2,17.72,East,90,0.0,0.0,26,0.00,,---,0.00,VWS V13.01,2013-07-23 01:28:00,
2013-07-22 21:33:00,70.7,34.2,17.72,East,90,0.0,0.0,26,0.00,,---,0.00,VWS V13.01,2013-07-23 01:33:00,
2013-07-22 21:38:00,70.5,35.0,17.72,East,90,0.0,0.0,27,0.00,,---,0.00,VWS V13.01,2013-07-23 01:38:00,
2013-07-22 21:43:00,70.5,35.0,17.72,East,90,0.0,0.0,27,0.00,,---,0.00,VWS V13.01,2013-07-23 01:43:00,
2013-07-22 21:48:00,70.3,34.8,17.72,East,90,0.0,0.0,27,0.00,,---,0.00,VWS V13.01,2013-07-23 01:48:00,
2013-07-22 21:53:00,70.3,34.8,17.72,East,90,0.0,0.0,27,0.00,,---,0.00,VWS V13.01,2013-07-23 01:53:00,
2013-07-22 21:58:00,70.3,35.7,17.72,East,89,0.0,0.0,28,0.00,,---,0.00,VWS V13.01,2013-07-23 01:58:00,
2013-07-22 22:03:00,70.2,36.5,17.72,East,90,0.0,0.0,29,0.00,,---,0.00,VWS V13.01,2013-07-23 02:03:00,
2013-07-22 22:08:00,70.2,36.5,17.72,East,90,0.0,0.0,29,0.00,,---,0.00,VWS V13.01,2013-07-23 02:08:00,
2013-07-22 22:13:00,70.2,36.5,17.72,East,90,0.0,0.0,29,0.00,,---,0.00,VWS V13.01,2013-07-23 02:13:00,
2013-07-22 22:18:00,70.0,36.3,17.72,East,90,0.0,0.0,29,0.00,,---,0.00,VWS V13.01,2013-07-23 02:18:00,
2013-07-22 22:23:00,70.0,37.2,17.72,East,90,0.0,0.0,30,0.00,,---,0.00,VWS V13.01,2013-07-23 02:23:00,
2013-07-22 22:28:00,70.0,37.2,17.72,East,90,0.0,0.0,30,0.00,,---,0.00,VWS V13.01,2013-07-23 02:28:00,
2013-07-22 22:33:00,70.0,38.0,17.72,East,90,0.0,0.0,31,0.00,,---,0.00,VWS V13.01,2013-07-23 02:33:00,
2013-07-22 22:38:00,70.0,38.0,17.72,East,90,0.0,0.0,31,0.00,,---,0.00,VWS V13.01,2013-07-23 02:38:00,
2013-07-22 22:43:00,69.8,37.8,17.72,East,90,0.0,0.0,31,0.00,,---,0.00,VWS V13.01,2013-07-23 02:43:00,
2013-07-22 22:48:00,69.8,38.6,17.72,East,90,0.0,0.0,32,0.00,,---,0.00,VWS V13.01,2013-07-23 02:48:00,
2013-07-22 22:53:00,69.8,38.6,17.72,East,90,0.0,0.0,32,0.00,,---,0.00,VWS V13.01,2013-07-23 02:53:00,
2013-07-22 22:58:00,69.8,38.6,17.72,East,90,0.0,0.0,32,0.00,,---,0.00,VWS V13.01,2013-07-23 02:58:00,
2013-07-22 23:03:00,69.8,38.6,17.72,East,90,0.0,0.0,32,0.00,,---,0.00,VWS V13.01,2013-07-23 03:03:00,
2013-07-22 23:08:00,69.6,39.3,17.72,East,89,0.0,0.0,33,0.00,,---,0.00,VWS V13.01,2013-07-23 03:08:00,
2013-07-22 23:13:00,69.6,39.3,17.72,East,90,0.0,0.0,33,0.00,,---,0.00,VWS V13.01,2013-07-23 03:13:00,
2013-07-22 23:18:00,69.3,39.0,17.72,East,90,0.0,0.0,33,0.00,,---,0.00,VWS V13.01,2013-07-23 03:18:00,
2013-07-22 23:23:00,69.1,38.8,17.72,East,90,0.0,0.0,33,0.00,,---,0.00,VWS V13.01,2013-07-23 03:23:00,
2013-07-22 23:28:00,68.9,39.4,17.72,East,100,0.0,0.0,34,0.00,,---,0.00,VWS V13.01,2013-07-23 03:28:00,
2013-07-22 23:33:00,68.7,38.5,17.72,SSE,156,0.0,0.0,33,0.00,,---,0.00,VWS V13.01,2013-07-23 03:33:00,
2013-07-22 23:38:00,68.5,39.1,17.72,SSE,156,0.0,0.0,34,0.00,,---,0.00,VWS V13.01,2013-07-23 03:38:00,
2013-07-22 23:43:00,68.5,39.1,17.72,SSE,156,0.0,0.0,34,0.00,,---,0.00,VWS V13.01,2013-07-23 03:43:00,
2013-07-22 23:48:00,68.5,39.1,17.72,SSE,156,0.0,0.0,34,0.00,,---,0.00,VWS V13.01,2013-07-23 03:48:00,
2013-07-22 23:53:00,68.4,39.7,17.72,SSE,156,0.0,0.0,35,0.00,,---,0.00,VWS V13.01,2013-07-23 03:53:00,
2013-07-22 23:58:00,68.4,39.7,17.72,SSE,156,0.0,0.0,35,0.00,,---,0.00,VWS V13.01,2013-07-23 03:58:00,